EB5ETD Weather Reports


Display with metric or nautical units.
time (UTC)temp
F
wind
direction
speed
MPH
gust
MPH
rain 1hr
in
rain 24hr
in
rain mn
in
humidity
%
barometer
mb
20260902194504 78 82 0.0 1.0 0.00 0.00 0.00 80 1027.8
20260902194003 79 82 1.0 2.0 0.00 0.00 0.00 79 1027.8
20260902193504 79 83 1.0 2.0 0.00 0.00 0.00 79 1027.6
20260902193005 79 84 1.0 2.0 0.00 0.00 0.00 79 1027.5
20260902192504 79 78 1.0 1.0 0.00 0.00 0.00 78 1027.5
20260902191004 80 72 1.0 3.0 0.00 0.00 0.00 77 1027.2
20260902190003 80 67 1.0 5.0 0.00 0.00 0.00 76 1027.1
20260902185504 80 69 1.0 3.0 0.00 0.00 0.00 76 1027.2
20260902185004 80 66 2.0 5.0 0.00 0.00 0.00 76 1027.2
20260902184503 81 72 1.0 3.0 0.00 0.00 0.00 75 1026.9
20260902184004 81 59 2.0 5.0 0.00 0.00 0.00 75 1027.0
20260902183504 81 39 1.0 3.0 0.00 0.00 0.00 75 1027.0
20260902183004 81 70 2.0 5.0 0.00 0.00 0.00 74 1027.0
20260902182504 82 87 1.0 3.0 0.00 0.00 0.00 74 1027.0
20260902182004 82 127 2.0 5.0 0.00 0.00 0.00 73 1026.8
20260902181503 82 42 1.0 6.0 0.00 0.00 0.00 73 1027.0
20260902181004 83 51 2.0 7.0 0.00 0.00 0.00 72 1026.9
20260902180504 83 77 2.0 5.0 0.00 0.00 0.00 71 1026.8
20260902180006 84 61 2.0 6.0 0.00 0.00 0.00 70 1026.6
20260902175504 84 74 1.0 3.0 0.00 0.00 0.00 69 1026.7
20260902175004 84 53 2.0 3.0 0.00 0.00 0.00 69 1026.5
20260902174504 85 58 2.0 7.0 0.00 0.00 0.00 68 1026.5
20260902174004 85 57 1.0 6.0 0.00 0.00 0.00 67 1026.4
20260902173505 86 48 2.0 6.0 0.00 0.00 0.00 66 1026.5
20260902173004 87 51 3.0 5.0 0.00 0.00 0.00 65 1026.2
20260902172503 87 85 2.0 6.0 0.00 0.00 0.00 64 1026.3
20260902172004 88 54 2.0 6.0 0.00 0.00 0.00 64 1026.1
20260902171504 88 60 1.0 5.0 0.00 0.00 0.00 63 1026.1
20260902171004 89 65 1.0 3.0 0.00 0.00 0.00 62 1026.1
20260902170504 89 68 1.0 5.0 0.00 0.00 0.00 61 1026.0
20260902170003 89 56 2.0 5.0 0.00 0.00 0.00 61 1026.1
20260902165503 89 59 3.0 6.0 0.00 0.00 0.00 61 1026.0
20260902165005 90 48 2.0 7.0 0.00 0.00 0.00 60 1025.9
20260902164504 90 62 1.0 3.0 0.00 0.00 0.00 59 1025.9
20260902164004 90 24 2.0 5.0 0.00 0.00 0.00 60 1025.9
20260902163503 89 41 2.0 5.0 0.00 0.00 0.00 60 1025.8
20260902163004 90 54 3.0 5.0 0.00 0.00 0.00 60 1026.0
20260902162504 89 61 3.0 6.0 0.00 0.00 0.00 60 1026.1
20260902161504 90 76 2.0 6.0 0.00 0.00 0.00 59 1026.0
20260902161005 90 86 3.0 6.0 0.00 0.00 0.00 59 1025.9
20260902160503 91 41 3.0 7.0 0.00 0.00 0.00 58 1026.1
20260902160006 91 59 2.0 6.0 0.00 0.00 0.00 57 1025.8
20260902155503 91 54 1.0 5.0 0.00 0.00 0.00 57 1025.9
20260902155004 91 39 3.0 6.0 0.00 0.00 0.00 58 1025.9
20260902154503 91 48 3.0 7.0 0.00 0.00 0.00 57 1025.8
20260902153504 90 67 3.0 8.0 0.00 0.00 0.00 57 1026.1
20260902153004 90 55 3.0 8.0 0.00 0.00 0.00 58 1025.8
20260902152504 91 46 3.0 8.0 0.00 0.00 0.00 58 1026.1
20260902152003 91 40 2.0 8.0 0.00 0.00 0.00 57 1026.0
20260902151504 91 58 3.0 7.0 0.00 0.00 0.00 56 1026.1
20260902151004 91 72 2.0 8.0 0.00 0.00 0.00 57 1026.1
20260902150003 91 58 2.0 8.0 0.00 0.00 0.00 56 1026.1
20260902145504 90 67 3.0 7.0 0.00 0.00 0.00 57 1026.1
20260902145003 91 41 5.0 8.0 0.00 0.00 0.00 56 1026.2
20260902144504 90 51 3.0 6.0 0.00 0.00 0.00 57 1026.0
20260902144004 90 61 3.0 8.0 0.00 0.00 0.00 58 1026.0
20260902143504 90 58 4.0 9.0 0.00 0.00 0.00 57 1026.2
20260902143004 92 67 4.0 7.0 0.00 0.00 0.00 56 1025.9
20260902142504 90 59 4.0 9.0 0.00 0.00 0.00 57 1026.1
20260902142003 91 46 6.0 9.0 0.00 0.00 0.00 57 1026.0
20260902141504 90 63 7.0 12.0 0.00 0.00 0.00 58 1026.2
20260902141004 91 59 4.0 9.0 0.00 0.00 0.00 55 1026.1
20260902140004 92 38 3.0 10.0 0.00 0.00 0.00 54 1026.1
20260902135504 92 66 5.0 9.0 0.00 0.00 0.00 54 1026.2
20260902135004 91 44 4.0 9.0 0.00 0.00 0.00 55 1026.0
20260902134504 91 68 5.0 10.0 0.00 0.00 0.00 54 1026.2
20260902134004 91 45 5.0 10.0 0.00 0.00 0.00 53 1026.3
20260902133503 92 48 5.0 10.0 0.00 0.00 0.00 53 1026.3
20260902132504 90 48 4.0 9.0 0.00 0.00 0.00 52 1026.4
20260902132004 90 51 5.0 8.0 0.00 0.00 0.00 52 1026.5
20260902131504 91 46 3.0 8.0 0.00 0.00 0.00 51 1026.3
20260902131004 90 54 4.0 12.0 0.00 0.00 0.00 53 1026.6
20260902130004 91 47 4.0 7.0 0.00 0.00 0.00 50 1026.5
20260902125504 91 59 3.0 9.0 0.00 0.00 0.00 51 1026.5
20260902124504 90 60 7.0 10.0 0.00 0.00 0.00 52 1026.3
20260902124004 90 48 5.0 9.0 0.00 0.00 0.00 51 1026.6
20260902123504 91 65 4.0 9.0 0.00 0.00 0.00 50 1026.6
20260902122504 91 49 3.0 7.0 0.00 0.00 0.00 48 1026.6
20260902122004 90 50 3.0 7.0 0.00 0.00 0.00 46 1026.7
20260902121504 90 59 4.0 10.0 0.00 0.00 0.00 47 1026.7
20260902121005 90 41 3.0 7.0 0.00 0.00 0.00 48 1026.7
20260902115504 89 46 3.0 9.0 0.00 0.00 0.00 49 1026.9
20260902115004 89 81 3.0 7.0 0.00 0.00 0.00 52 1027.0
20260902114504 89 62 2.0 7.0 0.00 0.00 0.00 52 1026.9
20260902114004 88 26 3.0 7.0 0.00 0.00 0.00 53 1027.0
20260902113504 88 55 4.0 9.0 0.00 0.00 0.00 54 1026.9
20260902113004 89 48 4.0 7.0 0.00 0.00 0.00 53 1027.0
20260902112504 87 62 5.0 9.0 0.00 0.00 0.00 55 1027.3
20260902112004 87 57 3.0 10.0 0.00 0.00 0.00 54 1027.4
20260902111503 87 38 4.0 8.0 0.00 0.00 0.00 53 1027.3
20260902111004 86 52 5.0 8.0 0.00 0.00 0.00 54 1027.4
20260902110503 86 36 5.0 8.0 0.00 0.00 0.00 54 1027.4
20260902110007 86 52 2.0 6.0 0.00 0.00 0.00 55 1027.3
20260902105504 86 71 3.0 7.0 0.00 0.00 0.00 55 1027.4
20260902105003 86 70 1.0 6.0 0.00 0.00 0.00 56 1027.5
20260902104504 85 38 2.0 6.0 0.00 0.00 0.00 56 1027.7
20260902104004 84 48 5.0 8.0 0.00 0.00 0.00 58 1027.5
20260902103504 84 39 4.0 8.0 0.00 0.00 0.00 57 1027.7
20260902103004 84 54 3.0 9.0 0.00 0.00 0.00 58 1027.8
20260902102504 84 39 4.0 7.0 0.00 0.00 0.00 58 1027.6
20260902102004 84 64 2.0 5.0 0.00 0.00 0.00 56 1027.6
20260902101004 84 83 2.0 7.0 0.00 0.00 0.00 56 1027.7
20260902100504 84 56 2.0 6.0 0.00 0.00 0.00 55 1027.7
20260902100003 84 43 2.0 7.0 0.00 0.00 0.00 55 1027.6
20260902095503 83 48 2.0 6.0 0.00 0.00 0.00 57 1027.7
20260902095004 82 59 3.0 6.0 0.00 0.00 0.00 58 1027.9
20260902094503 83 55 4.0 7.0 0.00 0.00 0.00 58 1027.8
20260902094003 83 66 2.0 5.0 0.00 0.00 0.00 58 1027.9
20260902093037 81 33 3.0 7.0 0.00 0.00 0.00 61 1027.8
20260902092029 82 47 2.0 8.0 0.00 0.00 0.00 60 1027.5
20260902091039 81 64 2.0 5.0 0.00 0.00 0.00 61 1027.5
20260902090005 80 58 2.0 5.0 0.00 0.00 0.00 62 1027.7
20260902085503 80 54 2.0 6.0 0.00 0.00 0.00 64 1027.6
20260902085005 80 66 3.0 6.0 0.00 0.00 0.00 64 1027.5
20260902084504 80 54 2.0 3.0 0.00 0.00 0.00 64 1027.5
20260902084005 80 55 1.0 3.0 0.00 0.00 0.00 64 1027.5
20260902083503 80 72 2.0 3.0 0.00 0.00 0.00 64 1027.6
20260902083004 79 85 2.0 5.0 0.00 0.00 0.00 63 1027.4
20260902082504 79 64 2.0 5.0 0.00 0.00 0.00 63 1027.3
20260902082004 78 62 1.0 3.0 0.00 0.00 0.00 63 1027.3
20260902081504 78 76 2.0 3.0 0.00 0.00 0.00 63 1027.3
20260902081004 78 76 1.0 3.0 0.00 0.00 0.00 62 1027.5
20260902080503 78 70 1.0 2.0 0.00 0.00 0.00 61 1027.4
20260902080004 77 50 1.0 2.0 0.00 0.00 0.00 60 1027.2
20260902075504 76 48 1.0 3.0 0.00 0.00 0.00 62 1027.4
20260902075004 77 67 1.0 3.0 0.00 0.00 0.00 62 1027.4
20260902074504 76 68 0.0 2.0 0.00 0.00 0.00 63 1027.4
20260902074004 75 177 1.0 1.0 0.00 0.00 0.00 65 1027.5
20260902073503 75 178 1.0 1.0 0.00 0.00 0.00 65 1027.5
20260902073003 75 69 1.0 2.0 0.00 0.00 0.00 66 1027.3
20260902072504 74 117 1.0 1.0 0.00 0.00 0.00 66 1027.3
20260902071504 74 114 1.0 2.0 0.00 0.00 0.00 65 1027.1
20260902071004 75 236 0.0 1.0 0.00 0.00 0.00 65 1027.0
20260902070504 73 236 0.0 1.0 0.00 0.00 0.00 68 1027.2
20260902070005 72 236 0.0 1.0 0.00 0.00 0.00 70 1027.4
20260902065504 72 236 0.0 1.0 0.00 0.00 0.00 69 1027.3
20260902064504 71 236 0.0 1.0 0.00 0.00 0.00 72 1027.2
20260902064004 70 236 0.0 1.0 0.00 0.00 0.00 75 1027.3
20260902063004 68 236 0.0 1.0 0.00 0.00 0.00 77 1027.0
20260902062504 68 251 2.0 3.0 0.00 0.00 0.00 76 1027.1
20260902061004 68 257 0.0 1.0 0.00 0.00 0.00 79 1026.9
20260902060504 67 256 0.0 2.0 0.00 0.00 0.00 79 1027.1
20260902060003 67 273 2.0 3.0 0.00 0.00 0.00 79 1027.0
20260902055504 67 230 0.0 2.0 0.00 0.00 0.00 79 1027.0
20260902055004 67 356 1.0 2.0 0.00 0.00 0.00 79 1027.0
20260902053003 67 73 1.0 2.0 0.00 0.00 0.00 80 1026.6
20260902052503 67 253 1.0 2.0 0.00 0.00 0.00 80 1026.4
20260902052004 67 58 1.0 2.0 0.00 0.00 0.00 80 1026.5
20260902051504 67 114 1.0 2.0 0.00 0.00 0.00 80 1026.4
20260902051004 67 93 1.0 2.0 0.00 0.00 0.00 81 1026.3
20260902045504 67 101 2.0 3.0 0.00 0.00 0.00 82 1026.5
20260902045004 67 33 1.0 2.0 0.00 0.00 0.00 82 1026.3
20260902044504 67 67 2.0 3.0 0.00 0.00 0.00 83 1026.2
20260902044004 67 269 1.0 2.0 0.00 0.00 0.00 83 1026.1
20260902043503 67 227 1.0 3.0 0.00 0.00 0.00 83 1025.9
20260902043003 67 217 1.0 2.0 0.00 0.00 0.00 84 1025.9
20260902042004 67 251 1.0 2.0 0.00 0.00 0.00 84 1025.9
20260902041504 67 256 3.0 3.0 0.00 0.00 0.00 85 1026.0
20260902041003 67 226 1.0 3.0 0.00 0.00 0.00 85 1026.1
20260902040504 67 149 0.0 6.0 0.00 0.00 0.00 84 1026.3
20260902035504 67 259 0.0 0.0 0.00 0.00 0.00 85 1026.3
20260902035004 67 259 0.0 2.0 0.00 0.00 0.00 85 1026.2
20260902034504 67 257 1.0 5.0 0.00 0.00 0.00 85 1026.5
20260902034005 68 217 1.0 2.0 0.00 0.00 0.00 85 1026.5
20260902033504 68 265 1.0 1.0 0.00 0.00 0.00 85 1026.4
20260902032504 67 242 2.0 2.0 0.00 0.00 0.00 85 1026.5
20260902032004 67 232 0.0 2.0 0.00 0.00 0.00 85 1026.6
20260902031504 67 27 1.0 2.0 0.00 0.00 0.00 85 1026.6
20260902031004 67 27 0.0 1.0 0.00 0.00 0.00 85 1026.4
20260902030504 68 27 1.0 1.0 0.00 0.00 0.00 85 1026.4
20260902030004 67 27 1.0 1.0 0.00 0.00 0.00 85 1026.3
20260902025504 67 27 1.0 1.0 0.00 0.00 0.00 85 1026.5
20260902025004 68 27 0.0 1.0 0.00 0.00 0.00 86 1026.5
20260902024504 67 27 0.0 1.0 0.00 0.00 0.00 86 1026.6
20260902024004 68 27 1.0 2.0 0.00 0.00 0.00 86 1026.4
20260902023504 68 142 0.0 1.0 0.00 0.00 0.00 86 1026.6
20260902023004 68 142 0.0 1.0 0.00 0.00 0.00 86 1026.3
20260902022504 68 142 0.0 1.0 0.00 0.00 0.00 86 1026.4
20260902022004 68 217 1.0 2.0 0.00 0.00 0.00 86 1026.5
20260902021503 68 227 0.0 1.0 0.00 0.00 0.00 86 1026.7
20260902021004 68 218 1.0 1.0 0.00 0.00 0.00 86 1026.4
20260902020504 68 210 1.0 2.0 0.00 0.00 0.00 86 1026.3
20260902020003 68 76 0.0 1.0 0.00 0.00 0.00 86 1026.3
20260902015503 68 76 0.0 2.0 0.00 0.00 0.00 86 1026.3
20260902015004 68 76 0.0 2.0 0.00 0.00 0.00 85 1026.3
20260902014004 69 148 0.0 1.0 0.00 0.00 0.00 86 1026.4
20260902013504 69 63 0.0 0.0 0.00 0.00 0.00 86 1026.6
20260902013003 69 63 0.0 1.0 0.00 0.00 0.00 86 1026.4
20260902012504 69 63 0.0 0.0 0.00 0.00 0.00 85 1026.4
20260902012004 69 63 1.0 2.0 0.00 0.00 0.00 85 1026.3
20260902011503 69 63 1.0 2.0 0.00 0.00 0.00 85 1026.6
20260902011003 69 65 2.0 3.0 0.00 0.00 0.00 85 1026.5
20260902010503 69 213 0.0 1.0 0.00 0.00 0.00 85 1026.6
20260902010004 69 213 0.0 1.0 0.00 0.00 0.00 86 1026.6
20260902005504 70 213 0.0 1.0 0.00 0.00 0.00 86 1026.3
20260902005004 70 213 1.0 2.0 0.00 0.00 0.00 86 1026.5
20260902004503 70 213 0.0 1.0 0.00 0.00 0.00 86 1026.5
20260902003505 70 213 0.0 1.0 0.00 0.00 0.00 86 1026.6
20260902003004 70 213 0.0 1.0 0.00 0.00 0.00 86 1026.6
20260902002504 70 213 1.0 2.0 0.00 0.00 0.00 86 1026.7
20260902002003 70 233 1.0 2.0 0.00 0.00 0.00 86 1026.7
20260902001503 70 217 0.0 2.0 0.00 0.00 0.00 86 1026.7
20260902001003 70 231 1.0 3.0 0.00 0.00 0.00 86 1027.0
20260902000004 71 238 0.0 1.0 0.00 0.00 0.00 86 1026.9
20260901235504 70 237 0.0 1.0 0.00 0.00 0.00 86 1026.8
20260901235004 71 238 0.0 1.0 0.00 0.00 0.00 86 1026.9
20260901234504 71 239 0.0 1.0 0.00 0.00 0.00 86 1027.1
20260901234003 71 238 1.0 2.0 0.00 0.00 0.00 86 1027.0
20260901233504 71 234 1.0 2.0 0.00 0.00 0.00 85 1027.1
20260901233004 71 184 1.0 2.0 0.00 0.00 0.00 85 1027.0
20260901232003 71 41 0.0 1.0 0.00 0.00 0.00 85 1027.4
20260901231503 71 255 0.0 1.0 0.00 0.00 0.00 85 1027.4
20260901231004 71 255 0.0 1.0 0.00 0.00 0.00 85 1027.3
20260901230504 71 256 0.0 2.0 0.00 0.00 0.00 85 1027.3
20260901230004 71 218 0.0 1.0 0.00 0.00 0.00 85 1027.3
20260901225503 71 218 1.0 2.0 0.00 0.00 0.00 85 1027.2
20260901225003 71 218 1.0 2.0 0.00 0.00 0.00 84 1027.0
20260901224504 71 218 1.0 1.0 0.00 0.00 0.00 84 1027.0
20260901224004 71 218 0.0 1.0 0.00 0.00 0.00 84 1027.2
20260901223503 71 218 0.0 1.0 0.00 0.00 0.00 84 1027.0
20260901222504 72 218 0.0 1.0 0.00 0.00 0.00 85 1027.0
20260901222004 72 218 1.0 2.0 0.00 0.00 0.00 85 1026.9
20260901221504 71 346 0.0 2.0 0.00 0.00 0.00 85 1026.9
20260901221004 71 346 0.0 2.0 0.00 0.00 0.00 84 1026.8
20260901220503 71 346 0.0 1.0 0.00 0.00 0.00 84 1026.9
20260901220004 71 346 0.0 0.0 0.00 0.00 0.00 84 1026.8
20260901215505 72 347 0.0 1.0 0.00 0.00 0.00 84 1026.8
20260901214504 72 17 0.0 1.0 0.00 0.00 0.00 83 1026.8
20260901214005 72 26 0.0 1.0 0.00 0.00 0.00 83 1026.9
20260901213504 72 25 0.0 1.0 0.00 0.00 0.00 83 1026.8
20260901213004 73 45 0.0 1.0 0.00 0.00 0.00 83 1026.7
20260901212504 73 45 0.0 1.0 0.00 0.00 0.00 82 1026.7
20260901212004 73 46 0.0 1.0 0.00 0.00 0.00 82 1026.9
20260901211504 73 46 0.0 1.0 0.00 0.00 0.00 81 1027.0
20260901211004 73 46 0.0 0.0 0.00 0.00 0.00 81 1026.8
20260901210004 74 45 0.0 2.0 0.00 0.00 0.00 81 1026.9
20260901205504 74 24 0.0 2.0 0.00 0.00 0.00 81 1027.0
20260901205004 74 263 1.0 2.0 0.00 0.00 0.00 81 1026.8
20260901204504 74 272 0.0 0.0 0.00 0.00 0.00 81 1026.8
20260901204004 74 272 0.0 2.0 0.00 0.00 0.00 81 1026.6
20260901203504 74 244 1.0 6.0 0.00 0.00 0.00 81 1026.7
20260901202504 74 185 1.0 2.0 0.00 0.00 0.00 82 1026.5
20260901202003 74 59 0.0 1.0 0.00 0.00 0.00 83 1026.5
20260901201504 74 60 0.0 1.0 0.00 0.00 0.00 83 1026.6
20260901201004 74 60 0.0 0.0 0.00 0.00 0.00 82 1026.3
20260901200004 75 60 0.0 1.0 0.00 0.00 0.00 82 1026.4
20260901195504 75 60 0.0 1.0 0.00 0.00 0.00 82 1026.2
20260901195003 75 60 1.0 3.0 0.00 0.00 0.00 82 1026.3